User: anonymous   Login
Location: Dal�� Lhota
(48.7500°N, 14.0167°E)
Time: 03:08:17
(UTC+00:00)
Language:

Vanguard 2 Rocket - Orbit

View from above orbital plane
View from above orbital plane
View from above satellite
View from above satellite

Ground track
Ground track

The orbit data is extracted from the following two-line orbital elements,

1    12U 59001B   21217.60054330 -.00000068  00000-0 -35228-4 0  9992
2    12  32.9013 341.8214 1665041  93.4523 285.7059 11.44383702570017
Epoch (UTC): 05 August 2021 14:24:46
Eccentricity: 0.1665041
inclination: 32.9013°
perigee height: 555 km
apogee height: 3325 km
right ascension of ascending node: 341.8214°
argument of perigee: 93.4523°
revolutions per day: 11.44383702
mean anomaly at epoch: 285.7059°
orbit number at epoch: 57001

The dashed part of the orbit path shows where the satellite is in the earth's shadow,  

DLR